DW7980 Weather Reports


time (UTC)temp
C
wind
direction
speed
KPH
gust
KPH
rain 1hr
cm
rain 24hr
cm
rain mn
cm
humidity
%
barometer
mb
20260507213047 20 148 1.6 11.3 0.00 0.00 0.00 52 1018.7
20260507212541 20 82 3.2 11.3 0.00 0.00 0.00 50 1018.8
20260507212041 20 14 3.2 11.3 0.00 0.00 0.00 50 1018.9
20260507211556 20 129 3.2 9.7 0.00 0.00 0.00 51 1019.0
20260507211037 20 0 1.6 6.4 0.00 0.00 0.00 54 1019.1
20260507210539 20 60 4.8 11.3 0.00 0.00 0.00 50 1019.1
20260507210105 19 56 3.2 11.3 0.00 0.00 0.00 56 1019.1
20260507205539 18 107 1.6 11.3 0.00 0.00 0.00 53 1019.2
20260507205038 18 11 0.0 8.0 0.00 0.00 0.00 58 1019.2
20260507204549 18 148 1.6 8.0 0.00 0.00 0.00 54 1019.3
20260507204037 18 156 1.6 11.3 0.00 0.00 0.00 55 1019.2
20260507203537 18 187 3.2 11.3 0.00 0.00 0.00 54 1019.4
20260507203045 19 150 3.2 8.0 0.00 0.00 0.00 53 1019.4
20260507202536 19 87 0.0 8.0 0.00 0.00 0.00 58 1019.5
20260507202037 19 86 0.0 8.0 0.00 0.00 0.00 61 1019.6
20260507201547 18 49 3.2 9.7 0.00 0.00 0.00 61 1019.6
20260507201039 18 0 3.2 9.7 0.00 0.00 0.00 62 1019.5
20260507200541 17 289 1.6 16.1 0.00 0.00 0.00 58 1019.6
20260507200054 17 250 1.6 16.1 0.00 0.00 0.00 60 1019.7
20260507195541 17 173 1.6 11.3 0.00 0.00 0.00 59 1019.6
20260507195041 17 159 1.6 11.3 0.00 0.00 0.00 61 1019.7
20260507194555 18 159 3.2 11.3 0.00 0.00 0.00 57 1019.8
20260507194039 18 0 1.6 6.4 0.00 0.00 0.00 57 1019.9
20260507193542 18 131 1.6 4.8 0.00 0.00 0.00 60 1019.9
20260507193050 18 124 1.6 4.8 0.00 0.00 0.00 60 1019.9
20260507192539 17 29 3.2 6.4 0.00 0.00 0.00 64 1020.0
20260507192039 17 0 1.6 6.4 0.00 0.00 0.00 66 1020.0
20260507191552 17 0 1.6 6.4 0.00 0.00 0.00 62 1020.2
20260507191039 17 180 1.6 8.0 0.00 0.00 0.00 62 1020.3
20260507190539 16 42 1.6 9.7 0.00 0.00 0.00 64 1020.3
20260507190056 16 186 3.2 9.7 0.00 0.00 0.00 65 1020.4
20260507185538 16 159 4.8 9.7 0.00 0.00 0.00 61 1020.5
20260507185038 16 44 1.6 8.0 0.00 0.00 0.00 64 1020.6
20260507184550 16 0 1.6 8.0 0.00 0.00 0.00 64 1020.6
20260507184042 16 167 1.6 8.0 0.00 0.00 0.00 63 1020.6
20260507183538 16 5 3.2 8.0 0.00 0.00 0.00 65 1020.6
20260507183112 16 115 0.0 8.0 0.00 0.00 0.00 62 1020.6
20260507182539 16 184 1.6 8.0 0.00 0.00 0.00 63 1020.6
20260507182039 16 168 1.6 8.0 0.00 0.00 0.00 66 1020.7
20260507181551 16 69 0.0 9.7 0.00 0.00 0.00 66 1020.7
20260507181038 16 182 3.2 9.7 0.00 0.00 0.00 62 1020.9
20260507180540 16 325 1.6 6.4 0.00 0.00 0.00 60 1020.9
20260507180052 16 5 1.6 6.4 0.00 0.00 0.00 65 1020.9
20260507175538 16 0 1.6 8.0 0.00 0.00 0.00 65 1020.9
20260507175038 16 184 1.6 8.0 0.00 0.00 0.00 63 1021.0
20260507174600 16 350 3.2 8.0 0.00 0.00 0.00 63 1021.1
20260507174042 16 43 1.6 6.4 0.00 0.00 0.00 66 1021.1
20260507173538 15 75 1.6 6.4 0.00 0.00 0.00 66 1021.1
20260507173050 15 0 3.2 8.0 0.00 0.00 0.00 65 1021.1
20260507172543 15 86 1.6 8.0 0.00 0.00 0.00 66 1021.1
20260507172038 15 59 4.8 8.0 0.00 0.00 0.00 65 1021.0
20260507171548 15 20 1.6 6.4 0.00 0.00 0.00 67 1021.0
20260507171040 15 311 0.0 6.4 0.00 0.00 0.00 68 1021.1
20260507170540 15 89 1.6 6.4 0.00 0.00 0.00 66 1021.1
20260507170047 14 101 1.6 6.4 0.00 0.00 0.00 68 1021.1
20260507165541 13 48 1.6 4.8 0.00 0.00 0.00 70 1021.1
20260507165041 13 0 0.0 4.8 0.00 0.00 0.00 70 1021.0
20260507164615 13 50 0.0 4.8 0.00 0.00 0.00 73 1021.1
20260507164041 12 0 1.6 6.4 0.00 0.00 0.00 72 1021.1
20260507163540 12 72 0.0 6.4 0.00 0.00 0.00 71 1021.0
20260507163054 12 48 1.6 6.4 0.00 0.00 0.00 74 1021.1
20260507162538 12 63 3.2 6.4 0.00 0.00 0.00 73 1021.0
20260507162040 12 67 1.6 4.8 0.00 0.00 0.00 72 1021.1
20260507161556 12 67 1.6 4.8 0.00 0.00 0.00 73 1021.1
20260507161039 12 67 1.6 6.4 0.00 0.00 0.00 74 1021.1
20260507160541 12 67 1.6 6.4 0.00 0.00 0.00 73 1021.2
20260507160051 12 62 1.6 6.4 0.00 0.00 0.00 74 1021.1
20260507155540 12 62 1.6 6.4 0.00 0.00 0.00 73 1021.1
20260507155040 12 53 3.2 6.4 0.00 0.00 0.00 73 1021.1
20260507154556 12 25 1.6 4.8 0.00 0.00 0.00 74 1021.2
20260507154042 12 25 1.6 4.8 0.00 0.00 0.00 74 1021.2
20260507153542 12 0 1.6 4.8 0.00 0.00 0.00 74 1021.2
20260507153049 11 303 1.6 4.8 0.00 0.00 0.00 75 1021.2
20260507152543 11 303 0.0 4.8 0.00 0.00 0.00 75 1021.3
20260507152041 11 0 0.0 3.2 0.00 0.00 0.00 76 1021.3
20260507151550 11 0 0.0 3.2 0.00 0.00 0.00 77 1021.2
20260507151042 11 0 0.0 3.2 0.00 0.00 0.00 77 1021.3
20260507150538 11 0 0.0 4.8 0.00 0.00 0.00 77 1021.2
20260507150053 11 59 1.6 4.8 0.00 0.00 0.00 76 1021.2
20260507145540 11 0 0.0 4.8 0.00 0.00 0.00 78 1021.2
20260507145037 11 0 1.6 4.8 0.00 0.00 0.00 77 1021.3
20260507144549 11 59 0.0 4.8 0.00 0.00 0.00 77 1021.2
20260507144040 11 0 0.0 0.0 0.00 0.00 0.00 77 1021.2
20260507143540 11 0 0.0 0.0 0.00 0.00 0.00 79 1021.2
20260507143056 10 0 0.0 0.0 0.00 0.00 0.00 78 1021.1
20260507142540 10 0 0.0 0.0 0.00 0.00 0.00 78 1021.1
20260507142040 10 0 0.0 0.0 0.00 0.00 0.00 79 1021.1
20260507141545 10 0 0.0 0.0 0.00 0.00 0.00 78 1021.0
20260507141040 10 0 0.0 0.0 0.00 0.00 0.00 79 1021.1
20260507140540 10 0 0.0 0.0 0.00 0.00 0.00 79 1021.0
20260507140053 10 0 0.0 0.0 0.00 0.00 0.00 79 1021.1
20260507135540 10 0 0.0 0.0 0.00 0.00 0.00 79 1021.0
20260507135038 10 0 0.0 0.0 0.00 0.00 0.00 79 1021.1
20260507134550 10 0 0.0 0.0 0.00 0.00 0.00 79 1020.9
20260507134039 10 0 0.0 0.0 0.00 0.00 0.00 79 1020.9
20260507133540 10 0 0.0 0.0 0.00 0.00 0.00 79 1020.9
20260507133052 10 0 0.0 0.0 0.00 0.00 0.00 79 1020.9
20260507132541 10 0 0.0 0.0 0.00 0.00 0.00 79 1020.9
20260507132037 10 0 0.0 0.0 0.00 0.00 0.00 79 1020.9
20260507131548 10 0 0.0 0.0 0.00 0.00 0.00 79 1020.9
20260507131039 10 0 0.0 0.0 0.00 0.00 0.00 79 1020.9
20260507130543 10 0 0.0 0.0 0.00 0.00 0.00 79 1020.9
20260507130054 10 0 0.0 0.0 0.00 0.00 0.00 79 1020.9
20260507125541 10 0 0.0 0.0 0.00 0.00 0.00 80 1020.9
20260507125038 10 0 0.0 0.0 0.00 0.00 0.00 80 1020.9
20260507124559 10 0 0.0 0.0 0.00 0.00 0.00 80 1020.9
20260507124041 10 0 0.0 0.0 0.00 0.00 0.00 80 1021.0
20260507123538 10 0 0.0 0.0 0.00 0.00 0.00 80 1020.9
20260507123051 11 0 0.0 0.0 0.00 0.00 0.00 80 1021.0
20260507122540 11 0 0.0 0.0 0.00 0.00 0.00 80 1020.9
20260507122040 11 0 0.0 0.0 0.00 0.00 0.00 80 1020.9
20260507121551 11 0 0.0 0.0 0.00 0.00 0.00 80 1020.9
20260507121039 11 0 0.0 0.0 0.00 0.00 0.00 79 1021.0
20260507120542 11 0 0.0 0.0 0.00 0.00 0.00 79 1021.0
20260507120053 11 0 0.0 0.0 0.00 0.00 0.00 79 1021.1
20260507115541 11 0 0.0 0.0 0.00 0.00 0.00 80 1021.1
20260507115044 11 0 0.0 0.0 0.00 0.00 0.00 80 1021.1
20260507114605 11 0 0.0 0.0 0.00 0.00 0.00 79 1021.1
20260507114038 11 0 0.0 0.0 0.00 0.00 0.00 80 1021.1
20260507113539 11 0 0.0 0.0 0.00 0.00 0.00 80 1021.2
20260507113117 11 0 0.0 0.0 0.00 0.00 0.00 80 1021.1
20260507112538 11 0 0.0 0.0 0.00 0.00 0.00 80 1021.2
20260507112045 11 0 0.0 0.0 0.00 0.00 0.00 80 1021.3
20260507111550 11 0 0.0 0.0 0.00 0.00 0.00 80 1021.3
20260507111038 11 0 0.0 0.0 0.00 0.00 0.00 80 1021.2
20260507110541 11 0 0.0 0.0 0.00 0.00 0.00 80 1021.3
20260507110043 11 0 0.0 0.0 0.00 0.00 0.00 79 1021.3
20260507105538 11 0 0.0 0.0 0.00 0.00 0.00 80 1021.4
20260507105041 11 0 0.0 0.0 0.00 0.00 0.00 80 1021.3
20260507104552 11 0 0.0 0.0 0.00 0.00 0.00 80 1021.3
20260507104037 11 0 0.0 0.0 0.00 0.00 0.00 80 1021.4
20260507103538 11 0 0.0 0.0 0.00 0.00 0.00 79 1021.4
20260507103054 11 0 0.0 0.0 0.00 0.00 0.00 80 1021.5
20260507102543 11 0 0.0 0.0 0.00 0.00 0.00 80 1021.4
20260507102042 11 0 0.0 0.0 0.00 0.00 0.00 79 1021.4
20260507101550 11 0 0.0 0.0 0.00 0.00 0.00 79 1021.4
20260507101041 11 0 0.0 0.0 0.00 0.00 0.00 79 1021.5
20260507100541 11 0 0.0 0.0 0.00 0.00 0.00 80 1021.5
20260507100047 11 0 0.0 1.6 0.00 0.00 0.00 80 1021.5
20260507095539 11 0 0.0 1.6 0.00 0.00 0.00 79 1021.5
20260507095038 11 150 0.0 0.0 0.00 0.00 0.00 80 1021.6
20260507094550 11 0 0.0 0.0 0.00 0.00 0.00 80 1021.7
20260507094045 11 0 0.0 0.0 0.00 0.00 0.00 80 1021.6
20260507093541 11 0 0.0 1.6 0.00 0.00 0.00 80 1021.8
20260507093051 11 0 0.0 1.6 0.00 0.00 0.00 80 1021.8
20260507092538 11 0 0.0 1.6 0.00 0.00 0.00 80 1021.8
20260507092037 11 0 0.0 0.0 0.00 0.00 0.00 80 1021.9
20260507091601 11 0 0.0 0.0 0.00 0.00 0.00 80 1021.9
20260507091042 11 0 0.0 0.0 0.00 0.00 0.00 80 1021.9
20260507090542 11 0 0.0 0.0 0.00 0.00 0.00 80 1021.9
20260507090051 11 0 0.0 0.0 0.00 0.00 0.00 80 1021.9
20260507085541 11 0 0.0 0.0 0.00 0.00 0.00 80 1022.0
20260507085041 11 0 0.0 3.2 0.00 0.00 0.00 80 1021.9
20260507084557 11 0 0.0 3.2 0.00 0.00 0.00 81 1022.0
20260507084041 12 153 0.0 3.2 0.00 0.00 0.00 81 1022.0
20260507083538 12 0 0.0 1.6 0.00 0.00 0.00 80 1022.0
20260507083050 12 0 0.0 1.6 0.00 0.00 0.00 80 1021.9
20260507082542 12 0 0.0 0.0 0.00 0.00 0.00 80 1022.0
20260507082038 12 0 0.0 3.2 0.00 0.00 0.00 80 1021.9
20260507081559 12 0 0.0 3.2 0.00 0.00 0.00 80 1022.0
20260507081043 12 113 0.0 3.2 0.00 0.00 0.00 79 1021.9
20260507080537 12 0 0.0 0.0 0.00 0.00 0.00 80 1022.0
20260507080059 12 0 0.0 0.0 0.00 0.00 0.00 80 1022.0
20260507075538 12 0 0.0 0.0 0.00 0.00 0.00 80 1022.0
20260507075042 12 0 0.0 0.0 0.00 0.00 0.00 80 1021.9
20260507074557 12 0 0.0 0.0 0.00 0.00 0.00 80 1021.9
20260507074047 12 0 0.0 0.0 0.00 0.00 0.00 80 1022.0
20260507073543 12 0 0.0 0.0 0.00 0.00 0.00 80 1021.8
20260507073102 12 0 0.0 0.0 0.00 0.00 0.00 80 1021.8
20260507072538 12 0 0.0 0.0 0.00 0.00 0.00 80 1021.8
20260507072038 12 0 0.0 0.0 0.00 0.00 0.00 80 1021.7
20260507071549 12 0 0.0 0.0 0.00 0.00 0.00 80 1021.7
20260507071038 12 0 0.0 1.6 0.00 0.00 0.00 80 1021.7
20260507070624 12 0 0.0 1.6 0.00 0.00 0.00 80 1021.7
20260507070051 12 0 0.0 1.6 0.00 0.00 0.00 79 1021.8
20260507065540 12 0 0.0 3.2 0.00 0.00 0.00 80 1021.8
20260507065040 12 0 0.0 3.2 0.00 0.00 0.00 80 1021.9
20260507064551 12 0 0.0 3.2 0.00 0.00 0.00 79 1021.8
20260507064045 12 112 0.0 3.2 0.00 0.00 0.00 79 1021.8
20260507063542 12 112 0.0 3.2 0.00 0.00 0.00 79 1021.9
20260507063053 12 112 1.6 3.2 0.00 0.00 0.00 79 1021.9
20260507062541 12 0 0.0 3.2 0.00 0.00 0.00 79 1022.0
20260507062038 12 0 0.0 3.2 0.00 0.00 0.00 79 1022.0
20260507061551 12 112 0.0 3.2 0.00 0.00 0.00 79 1022.0
20260507061040 12 113 0.0 0.0 0.00 0.00 0.00 79 1021.9
20260507060542 12 0 0.0 1.6 0.00 0.00 0.00 79 1022.0
20260507060101 12 0 0.0 4.8 0.00 0.00 0.00 79 1022.0
20260507055538 12 0 1.6 4.8 0.00 0.00 0.00 78 1022.0
20260507055041 13 93 0.0 3.2 0.00 0.00 0.00 78 1021.9
20260507054543 13 0 0.0 3.2 0.00 0.00 0.00 79 1021.9
20260507054040 13 93 0.0 4.8 0.00 0.00 0.00 79 1021.9
20260507053542 13 0 0.0 8.0 0.00 0.00 0.00 78 1021.9
20260507053047 13 93 3.2 8.0 0.00 0.00 0.00 78 1021.9
20260507052544 13 0 1.6 4.8 0.00 0.00 0.00 78 1021.9
20260507052041 13 144 0.0 3.2 0.00 0.00 0.00 78 1021.9
20260507051549 13 0 0.0 8.0 0.00 0.00 0.00 78 1021.8
20260507051041 13 173 0.0 8.0 0.00 0.00 0.00 78 1021.9
20260507050538 13 173 0.0 6.4 0.00 0.00 0.00 78 1021.9
20260507050047 13 63 1.6 6.4 0.00 0.00 0.00 78 1021.9
20260507045542 13 123 1.6 4.8 0.00 0.00 0.00 77 1021.9
20260507045039 13 91 1.6 4.8 0.00 0.00 0.00 77 1021.9
20260507044559 13 0 1.6 4.8 0.00 0.00 0.00 77 1021.9
20260507044039 13 91 1.6 4.8 0.00 0.00 0.00 77 1021.9
20260507043541 13 91 0.0 4.8 0.00 0.00 0.00 78 1021.8
20260507043102 14 91 1.6 4.8 0.00 0.00 0.00 77 1021.8
20260507042538 14 22 1.6 4.8 0.00 0.00 0.00 77 1021.7
20260507042041 14 18 0.0 4.8 0.00 0.00 0.00 77 1021.6
20260507041556 14 329 0.0 3.2 0.00 0.00 0.00 78 1021.6
20260507041038 14 0 0.0 3.2 0.00 0.00 0.00 78 1021.5
20260507040541 14 0 0.0 3.2 0.00 0.00 0.00 78 1021.4
20260507040051 14 329 0.0 3.2 0.00 0.00 0.00 78 1021.4
20260507035537 14 0 0.0 4.8 0.00 0.00 0.00 78 1021.4
20260507035039 14 0 0.0 4.8 0.00 0.00 0.00 78 1021.3
20260507034547 15 39 0.0 4.8 0.00 0.00 0.00 78 1021.2
20260507034036 15 39 1.6 3.2 0.00 0.00 0.00 78 1021.2
20260507033539 15 39 0.0 1.6 0.00 0.00 0.00 77 1021.0
20260507033048 15 0 0.0 1.6 0.00 0.00 0.00 77 1021.0
20260507032539 15 0 0.0 1.6 0.00 0.00 0.00 76 1020.9
20260507032039 15 0 0.0 1.6 0.00 0.00 0.00 75 1020.8
20260507031548 15 0 0.0 1.6 0.00 0.00 0.00 75 1020.7
20260507031038 16 0 0.0 1.6 0.00 0.00 0.00 75 1020.6
20260507030539 16 0 0.0 1.6 0.00 0.00 0.00 75 1020.6
20260507030051 16 0 0.0 1.6 0.00 0.00 0.00 74 1020.5
20260507025538 16 0 0.0 1.6 0.00 0.00 0.00 74 1020.4
20260507025040 16 0 0.0 3.2 0.00 0.00 0.00 74 1020.4
20260507024555 16 0 0.0 3.2 0.00 0.00 0.00 73 1020.3
20260507024038 17 39 0.0 1.6 0.00 0.00 0.00 74 1020.3
20260507023537 17 39 0.0 1.6 0.00 0.00 0.00 73 1020.3
20260507023104 17 0 0.0 3.2 0.00 0.00 0.00 73 1020.2
20260507022538 17 0 0.0 3.2 0.00 0.00 0.00 72 1020.2
20260507022038 17 0 0.0 1.6 0.00 0.00 0.00 71 1020.2
20260507021554 18 39 0.0 3.2 0.00 0.00 0.00 70 1020.2
20260507021037 18 38 0.0 3.2 0.00 0.00 0.00 71 1020.2
20260507020538 18 0 0.0 3.2 0.00 0.00 0.00 71 1020.2
20260507020058 18 38 0.0 3.2 0.00 0.00 0.00 71 1020.3
20260507015538 18 0 0.0 4.8 0.00 0.00 0.00 71 1020.2
20260507015038 18 30 1.6 4.8 0.00 0.00 0.00 70 1020.3
20260507014549 18 0 1.6 4.8 0.00 0.00 0.00 69 1020.3
20260507014038 19 0 1.6 4.8 0.00 0.00 0.00 69 1020.4
20260507013538 19 144 0.0 3.2 0.00 0.00 0.00 71 1020.3
20260507013049 19 144 0.0 3.2 0.00 0.00 0.00 71 1020.2
20260507012542 20 144 1.6 3.2 0.00 0.00 0.00 71 1020.2
20260507012038 20 144 0.0 3.2 0.00 0.00 0.00 70 1020.2
20260507011550 20 146 1.6 3.2 0.00 0.00 0.00 70 1020.1
20260507011038 20 0 0.0 1.6 0.00 0.00 0.00 69 1020.1
20260507010538 20 0 0.0 1.6 0.00 0.00 0.00 67 1020.2
20260507010054 20 0 0.0 1.6 0.00 0.00 0.00 67 1020.2
20260507005537 20 0 0.0 3.2 0.00 0.00 0.00 66 1020.2
20260507005037 20 0 0.0 3.2 0.00 0.00 0.00 69 1020.2
20260507004548 20 0 0.0 3.2 0.00 0.00 0.00 68 1020.1
20260507004038 20 0 0.0 3.2 0.00 0.00 0.00 65 1020.2
20260507003538 20 0 0.0 4.8 0.00 0.00 0.00 68 1020.2
20260507003113 20 0 0.0 4.8 0.00 0.00 0.00 67 1020.2
20260507002540 20 0 0.0 4.8 0.00 0.00 0.00 65 1020.2
20260507002038 21 116 1.6 4.8 0.00 0.00 0.00 67 1020.2
20260507001612 20 146 0.0 3.2 0.00 0.00 0.00 68 1020.2
20260507001037 20 0 0.0 4.8 0.00 0.00 0.00 68 1020.2
20260507000543 20 147 1.6 6.4 0.00 0.00 0.00 67 1020.2
20260507000051 20 64 1.6 6.4 0.00 0.00 0.00 72 1020.2
20260506235540 19 0 0.0 6.4 0.00 0.00 0.00 69 1020.2
20260506235039 19 162 1.6 6.4 0.00 0.00 0.00 67 1020.3
20260506234554 19 0 0.0 3.2 0.00 0.00 0.00 68 1020.3
20260506234039 19 0 0.0 3.2 0.00 0.00 0.00 69 1020.3
20260506233539 19 330 0.0 4.8 0.00 0.00 0.00 69 1020.4
20260506233047 19 0 1.6 4.8 0.00 0.00 0.00 68 1020.4
20260506232539 19 65 1.6 6.4 0.00 0.00 0.00 67 1020.3
20260506232038 19 260 1.6 6.4 0.00 0.00 0.00 69 1020.3
20260506231604 19 173 1.6 6.4 0.00 0.00 0.00 68 1020.5
20260506231037 18 78 1.6 4.8 0.00 0.00 0.00 70 1020.6
20260506230540 18 0 0.0 8.0 0.00 0.00 0.00 71 1020.6
20260506230104 18 199 3.2 9.7 0.00 0.00 0.00 69 1020.6
20260506225539 18 164 1.6 9.7 0.00 0.00 0.00 71 1020.6
20260506225039 18 168 1.6 8.0 0.00 0.00 0.00 70 1020.7
20260506224549 18 182 1.6 9.7 0.00 0.00 0.00 74 1020.7
20260506224038 18 152 3.2 9.7 0.00 0.00 0.00 73 1020.8
20260506223544 17 175 3.2 9.7 0.00 0.00 0.00 72 1020.9
20260506223049 18 178 3.2 9.7 0.00 0.00 0.00 73 1020.9
20260506222538 18 128 1.6 8.0 0.00 0.00 0.00 72 1020.8
20260506222042 18 163 1.6 9.7 0.00 0.00 0.00 72 1020.8
20260506221606 18 152 0.0 9.7 0.00 0.00 0.00 71 1020.9
20260506221040 18 222 1.6 9.7 0.00 0.00 0.00 73 1020.8
20260506220538 18 143 3.2 11.3 0.00 0.00 0.00 73 1020.8
20260506220049 18 160 3.2 11.3 0.00 0.00 0.00 73 1020.8
20260506215542 18 152 1.6 9.7 0.00 0.00 0.00 74 1020.8
20260506215038 17 163 3.2 9.7 0.00 0.00 0.00 74 1020.9
20260506214551 17 177 0.0 12.9 0.00 0.00 0.00 73 1021.0
20260506214038 17 186 3.2 12.9 0.00 0.00 0.00 74 1021.0
20260506213540 17 184 0.0 6.4 0.00 0.00 0.00 77 1021.1